EHI
0 0 0 0 0 0 0 0 0 0 0 0 0 0 0 0 0 0 0 0 0 0 0 0 0 0 0 0 0 0 0 0 0 0 0 0 0 0
0 0 0 0 0 0 0 0 0 0 0 0 0 0 0 0 0 0 0 0 0 0 0 0 0 0 0 0 0 0 0 0 0 0 0 0 0 0
0 0 0 0 0 0 0 0 0 0 0 0 0 0 0 0 0 0 0 0 0 0 0 0 0 0 0 0 0 0 0 0 0 0 0 0 0 0
0 0 0 0 0 0 0 0 0 0 0 0 0 0 0 0 0 0 0 0 0 0 0 0 0 0 0 0 0 0 0 0 0 0 0 0 0 0
0 0 0 0 0 0 0 0 0 0 0 0 0 0 0 0 0 0 0 0 0 0 0 0 0 0 0 0 0 0 0 0 0 0 0 0 0 0
0 0 0 0 0 0 0 0 0 0 0 0 0 0 0 0 0 0 0 0 0 0 0 0 0 0 0 0 0 0 0 0 0 0 0 0 0 0
0 0 0 0 0 0 0 0 0 0 0 0 0 0 0 0 0 0 0 0 0 0 0 0 0 0 0 0 0 0 0 0 0 0 0 0 0 0
0 0 0 0 0 0 0 0 0 0 0 0 0 0 0 0 0 0 0 0 0 0 0 0 0 0 0 0 0 0 0 0 0 0 0 0 0 0
0 0 0 0 0 0 0 0 0 0 0 0 0 0 0 0 0 0 0 0 0 0 0 0 0 0 0 0 0 0 0 0 0 0 0 0 0 0
0 0 0 0 0 0 0 0 0 0 0 0 0 0 0 0 0 0 0 0 0 0 0 0 0 0 0 0 0 0 0 0 0 0 0 0 0 0
0 0 0 0 0 0 0 0 0 0 0 0 0 0 0 0 0 0 0 0 0 0 0 0 0 0 0 0 0 0 0 0 0 0 0 0 0 0
0 0 0 0 0 0 0 0 0 0 0 0 0 0 0 0 0 0 0 0 0 0 0 0 0 0 0 0 0 0 0 0 0 0 0 0 0 0
0 0 0 0 0 0 0 0 0 0 0 0 0 0 0 0 0 0 0 0 0 0 0 0 0 0 0 0 0 0 0 0 0 0 0 0 0 0
0 0 0 0 0 0 0 0 0 0 0 0 0 0 0 0 0 0 0 0 0 0 0 0 0 0 0 0 0 0 0 0 0 0 0 0 0 0
0 0 0 0 0 0 0 0 0 0 0 0 0 0 0 0 0 0 0 0 0 0 0 0 0 0 0 0 0 0 0 0 0 0 0 0 0 0
0 0 0 0 0 0 0 0 0 0 0 0 0 0 0 0 0 0 0 0 0 0 0 0 0 0 0 0 0 0 0 0 0 0 0 0 0 0
0 0 0 0 0 0 0 0 0 0 0 0 0 0 0 0 0 0 0 0 0 0 0 0 0 0 0 0 0 0 0 0 0 0 0 0 0 0
0 0 0 0 0 0 0 0 0 0 0 0 0 0 0 0 0 0 0 0 0 0 0 0 0 0 0 0 0 0 0 0 0 0 0 0 0 0
0 0 0 0 0 0 0 0 0 0 0 0 0 0 0 0 0 0 0 0 0 0 0 0 0 0 0 0 0 0 0 0 0 0 0 0 0 0
0 0 0 0 0 0 0 0 0 0 0 0 0 0 0 0 0 0 0 0 0 0 0 0 0 0 0 0 0 0 0 0 0 0 0 0 0 0
0 0 0 0 0 0 0 0 0 0 0 0 0 0 0 0 0 0 0 0 0 0 0 0 0 0 0 0 0 0 0 0 0 0 0 0 0 0
0 0 0 0 0 0 0 0 0 0 0 0 0 0 0 0 0 0 0 0 0 0 0 0 0 0 0 0 0 0 0 0 0 0 0 0 0 0
0 0 0 0 0 0 0 0 0 0 0 0 0 0 0 0 0 0 0 0 0 0 0 0 0 0 0 0 0 0 0 0 0 0 0 0 0 0
Wind_Speed
3 4 4 4 4 4 4 5 7 14 15 6 3 3 5 7 15 12 11 23 32 33 34 34 34 34 34 34 34 34 34 34 34 34 34 34 34 34
3 5 5 5 5 5 5 6 7 11 16 9 10 9 9 11 19 14 13 29 30 32 33 34 35 35 36 35 35 34 34 34 34 34 34 34 35 35
5 5 7 7 5 5 6 6 7 8 15 16 11 10 11 12 13 10 12 12 14 28 32 34 35 35 35 35 34 34 34 34 33 34 34 34 35 35
6 6 7 7 7 6 6 8 8 9 13 19 16 12 13 12 13 12 13 13 11 24 32 33 34 34 34 34 34 34 34 34 33 33 34 34 34 35
6 6 7 7 8 8 8 9 9 10 9 14 17 14 12 10 12 13 12 11 13 19 26 28 30 33 34 34 35 34 34 34 33 33 33 33 34 34
5 6 7 8 9 10 9 9 9 10 10 12 14 13 12 10 10 12 14 10 11 13 19 22 26 31 32 34 34 34 34 33 33 33 33 33 33 34
6 7 8 13 17 14 13 11 11 11 12 12 13 14 13 12 12 12 16 15 12 10 12 12 13 13 16 23 28 31 32 33 33 33 33 33 33 33
8 8 9 11 15 21 25 24 22 17 15 13 13 15 16 14 14 14 15 17 15 6 10 15 12 14 13 12 24 32 33 33 33 33 33 33 33 33
8 9 10 11 17 11 18 23 19 23 23 17 15 15 17 16 17 18 16 16 17 14 14 18 13 15 14 16 30 33 34 34 33 33 33 33 33 33
8 9 10 10 12 17 15 13 10 11 16 13 11 14 15 15 14 15 16 17 16 12 11 16 16 15 15 14 26 32 32 32 32 32 32 32 32 33
9 9 11 10 20 27 17 14 13 11 17 22 23 23 27 27 21 13 12 13 16 14 8 9 11 15 16 15 16 25 27 29 31 32 32 32 32 31
7 7 15 19 24 27 15 12 14 15 14 14 15 18 15 16 21 12 10 12 14 12 5 6 10 12 12 8 7 11 15 24 29 30 30 30 30 19
8 7 8 23 26 26 22 11 17 19 12 12 12 12 11 10 10 10 10 10 13 13 11 10 11 10 11 14 13 13 12 12 14 17 22 27 27 22
10 9 11 25 26 25 18 19 25 20 10 10 11 11 11 11 11 12 13 13 13 17 18 16 13 13 14 16 15 12 11 12 12 13 12 17 19 22
10 19 23 25 22 15 18 23 18 10 10 10 11 11 10 11 12 11 12 12 14 14 13 14 14 13 13 14 13 14 15 14 10 10 10 9 8 7
10 14 20 20 16 17 16 13 9 9 11 10 11 11 10 10 10 9 11 12 12 12 10 11 12 13 13 14 13 15 14 12 12 13 10 6 4 5
13 6 7 9 9 9 9 9 9 10 10 10 10 11 12 12 11 9 9 10 10 13 15 12 9 9 12 13 11 11 13 13 13 12 8 5 3 3
13 8 9 9 10 11 12 12 11 10 10 10 11 10 11 11 12 11 9 10 11 12 12 12 13 12 8 7 8 9 11 11 12 11 8 5 4 2
8 8 9 10 10 10 11 11 12 11 10 10 11 11 11 11 11 11 11 11 11 11 11 10 10 9 11 11 10 9 12 13 12 10 9 6 6 5
6 8 9 10 10 11 11 11 12 12 10 10 11 11 10 10 11 11 10 11 12 12 11 9 8 9 8 8 8 10 17 15 12 12 11 7 7 7
9 9 9 10 10 11 11 11 11 12 12 11 11 11 10 10 11 11 11 15 13 10 11 10 10 16 9 6 7 8 10 17 18 13 13 9 8 9
10 10 10 11 11 11 11 11 11 12 12 11 11 11 10 10 11 12 11 10 9 9 9 8 10 8 5 5 7 9 11 13 14 20 23 22 11 9
10 11 11 11 11 10 10 11 13 13 12 11 11 11 11 11 10 10 10 9 8 7 7 7 7 5 5 5 6 7 11 13 11 11 12 23 26 25
Wind_Direction
270 263 254 254 251 253 256 265 290 304 308 290 273 262 269 278 285 289 282 291 296 296 297 297 296 294 292 291 289 287 284 282 279 276 273 271 268 265
266 264 262 259 258 256 255 256 256 278 292 294 296 292 283 291 295 293 285 292 295 295 294 293 293 293 292 290 288 286 283 281 279 276 273 271 268 265
288 281 275 273 269 264 260 260 262 266 284 295 294 295 290 288 292 281 279 277 281 289 293 294 293 292 291 290 288 287 284 282 279 277 274 272 269 266
291 290 286 288 278 274 270 268 269 266 279 294 300 300 294 291 291 288 294 292 285 291 293 294 293 293 292 290 288 286 284 282 280 277 274 271 269 267
289 289 287 287 285 282 277 276 275 281 280 289 295 296 295 294 296 295 291 286 288 292 294 293 292 291 290 290 289 288 287 284 281 278 275 272 269 266
289 285 284 283 283 284 286 280 287 291 288 287 291 297 299 297 298 304 303 293 291 292 290 290 290 292 291 290 289 287 285 283 280 277 273 270 266 263
290 284 284 299 304 305 307 307 302 296 297 298 301 304 305 309 307 305 302 302 292 282 287 289 288 284 284 284 285 283 281 279 277 274 271 267 264 260
295 292 291 296 300 311 311 307 304 305 306 304 305 304 305 304 304 303 304 304 303 295 293 296 290 287 284 279 281 283 282 281 279 276 272 268 264 260
291 294 301 303 310 295 295 301 304 304 306 305 300 299 300 302 303 303 302 300 299 303 302 296 294 289 287 285 288 286 285 284 281 278 273 269 264 260
284 287 290 293 297 305 304 307 300 298 299 299 289 291 296 299 299 302 301 299 295 291 290 292 295 292 292 286 286 284 284 284 282 279 276 271 266 260
287 290 300 299 305 313 317 311 308 305 309 306 305 305 307 308 309 307 305 305 303 301 290 280 288 299 292 282 280 285 287 288 285 282 278 274 269 262
293 288 306 312 313 320 320 315 314 311 311 313 312 308 303 300 306 304 301 300 302 302 288 290 296 311 303 277 274 287 289 288 288 285 281 275 270 262
311 308 302 315 319 323 325 317 309 315 319 316 309 305 304 303 304 302 296 291 292 287 291 300 295 295 284 295 300 293 286 287 290 285 282 276 269 258
312 309 310 319 325 326 325 316 319 325 318 309 307 308 310 309 307 304 297 288 277 278 283 286 284 289 292 293 296 296 298 293 288 284 278 274 269 259
310 315 320 324 327 324 317 320 326 319 309 308 308 308 304 299 301 302 301 296 289 279 274 273 277 285 286 288 289 294 304 303 294 291 287 275 260 249
313 316 324 324 322 317 318 319 313 307 311 308 306 304 303 303 304 306 308 312 309 305 292 277 276 286 293 289 287 292 300 301 307 308 301 286 256 228
325 323 320 319 320 318 316 314 313 314 313 308 306 307 308 308 307 310 305 309 306 308 315 316 307 293 282 279 287 295 306 312 313 319 318 311 281 232
334 324 319 319 318 318 317 316 315 313 312 310 306 304 305 306 307 309 307 307 308 309 311 316 323 325 322 295 260 297 315 321 325 328 333 330 335 305
330 316 314 314 313 311 310 309 309 309 308 305 302 303 302 302 303 305 308 310 309 308 309 313 321 326 328 326 312 316 328 333 337 342 345 345 345 346
318 314 313 311 309 308 307 306 306 307 307 304 302 301 300 301 302 303 305 306 308 310 313 317 321 324 317 306 305 310 331 345 347 351 351 349 1 4
317 313 310 307 305 304 303 303 302 302 302 302 300 299 300 300 298 299 301 305 310 310 315 318 312 318 308 305 316 331 338 348 358 4 0 1 7 17
313 311 307 304 303 302 302 302 302 301 302 300 299 298 297 295 295 297 299 302 304 306 309 307 313 323 331 340 340 338 345 349 355 9 23 30 27 20
311 308 305 303 301 300 300 300 299 298 298 297 296 296 296 295 295 294 295 297 302 309 315 318 326 333 331 333 341 345 352 355 358 7 18 21 32 40